TimeMST,TemperatureF,Dew PointF,Humidity,Sea Level PressureIn,VisibilityMPH,Wind Direction,Wind SpeedMPH,Gust SpeedMPH,PrecipitationIn,Events,Conditions,WindDirDegrees,DateUTC
12:53 AM,3.9,-2.0,76,30.46,10.0,Calm,Calm,-,N/A,,Clear,0,2012-12-10 07:53:00
1:53 AM,5.0,-2.0,73,30.47,10.0,Calm,Calm,-,N/A,,Clear,0,2012-12-10 08:53:00
2:53 AM,-0.0,-5.1,79,30.49,10.0,Calm,Calm,-,N/A,,Clear,0,2012-12-10 09:53:00
3:53 AM,-0.0,-5.1,79,30.48,10.0,Calm,Calm,-,N/A,,Clear,0,2012-12-10 10:53:00
4:53 AM,-0.9,-6.0,79,30.50,10.0,Calm,Calm,-,N/A,,Clear,0,2012-12-10 11:53:00
5:53 AM,1.9,-5.1,72,30.51,10.0,Calm,Calm,-,N/A,,Clear,0,2012-12-10 12:53:00
6:53 AM,1.0,-4.0,79,30.55,10.0,Calm,Calm,-,N/A,,Clear,0,2012-12-10 13:53:00
7:53 AM,1.9,-5.1,72,30.57,10.0,ENE,3.5,-,N/A,,Clear,60,2012-12-10 14:53:00
8:53 AM,10.9,-0.0,61,30.58,10.0,East,3.5,-,N/A,,Clear,90,2012-12-10 15:53:00
9:53 AM,19.9,3.9,50,30.51,10.0,Calm,Calm,-,N/A,,Clear,0,2012-12-10 16:53:00
10:53 AM,27.0,1.9,34,30.49,10.0,West,11.5,-,N/A,,Clear,270,2012-12-10 17:53:00
11:53 AM,30.0,3.0,32,30.38,10.0,West,5.8,-,N/A,,Clear,260,2012-12-10 18:53:00
12:53 PM,34.0,5.0,30,30.35,10.0,Variable,4.6,-,N/A,,Clear,0,2012-12-10 19:53:00
1:53 PM,39.0,7.0,27,30.26,10.0,WSW,13.8,-,N/A,,Clear,250,2012-12-10 20:53:00
2:53 PM,39.0,6.1,26,30.27,10.0,SW,13.8,-,N/A,,Clear,230,2012-12-10 21:53:00
3:53 PM,39.0,5.0,24,30.26,10.0,SW,12.7,-,N/A,,Clear,230,2012-12-10 22:53:00
4:20 PM,39.2,10.4,31,30.04,10.0,WNW,11.5,-,N/A,,Clear,290,2012-12-10 23:20:00
4:53 PM,36.0,8.1,31,30.30,10.0,WNW,13.8,-,N/A,,Clear,290,2012-12-10 23:53:00
5:53 PM,28.9,1.9,32,30.34,10.0,WSW,11.5,-,N/A,,Clear,250,2012-12-11 00:53:00
6:53 PM,28.9,1.9,32,30.37,10.0,WSW,10.4,-,N/A,,Mostly Cloudy,240,2012-12-11 01:53:00
7:53 PM,24.1,1.0,37,30.39,10.0,WSW,5.8,-,N/A,,Clear,250,2012-12-11 02:53:00
8:53 PM,21.0,-0.0,40,30.36,10.0,South,3.5,-,N/A,,Clear,190,2012-12-11 03:53:00
9:53 PM,17.1,-0.0,47,30.32,10.0,Calm,Calm,-,N/A,,Clear,0,2012-12-11 04:53:00
10:53 PM,17.1,-0.9,45,30.27,10.0,Calm,Calm,-,N/A,,Clear,0,2012-12-11 05:53:00
11:53 PM,12.0,-2.9,51,30.29,10.0,SW,5.8,-,N/A,,Clear,230,2012-12-11 06:53:00